www.pogodaiklimat.ru

Погода и климат >> Архив погоды >> Австрия >> Райхенау-ан-дер-Ракс


ПОГОДА в Райхенау-ан-дер-Раксе

  • Прогноз погоды в Райхенау-ан-дер-Раксе
  • Монитор погоды в Райхенау-ан-дер-Раксе

АРХИВ ПОГОДЫ в Райхенау-ан-дер-Раксе

Время (UTC), дата Ветер
(напр.,м/с)
 
Видим.   Явления Облачность Т
(С)
Тd
(С)
f
(%)
Тe
(С)
Тes
(С)
Комфортность P
(гПа)
Po
(гПа)
Тmin
(С)
Tmax
(С)
R
(мм)
R24
(мм)
S
(см)
22 14.09 штиль 0 н/о н/о +14.6 +13.6 94 +14 +14 1030.4 973.0
23 14.09 штиль 0 н/о н/о +14.5 +13.2 92 +14 +14 1030.4 973.0
00 15.09 штиль 0 н/о н/о +14.4 +13.4 94 +14 +14 1030.0 972.6 0.0
01 15.09 СЗ 1 н/о н/о +13.5 +13.3 99 +14 +14 1029.0 971.5
02 15.09 ЮВ 1 н/о н/о +12.1 +11.9 99 +12 +12 1028.9 971.1
03 15.09 штиль 0 н/о н/о +11.5 +11.3 99 +11 +11 1028.8 970.9
04 15.09 З 1 н/о н/о +11.4 +11.2 99 +11 +11 1028.9 970.9
05 15.09 штиль 0 н/о н/о +10.6 +10.4 99 +10 +10 1028.5 970.4
06 15.09 штиль 0 н/о н/о +11.7 +11.5 99 +11 +11 1028.0 970.2 +10.5 +15.2 0.0
07 15.09 штиль 0 н/о н/о +14.5 +12.5 88 +14 +14 1027.1 969.9
08 15.09 В 1 н/о н/о +18.0 +12.6 71 +19 +19 1026.3 969.8
09 15.09 В 1 н/о н/о +20.3 +13.0 63 +24 +24 комфорт 1024.9 968.9
10 15.09 ЮВ 2 н/о н/о +22.0 +13.3 58 +25 +25 комфорт 1024.0 968.4
11 15.09 В 3 н/о н/о +22.2 +13.2 57 +25 +25 комфорт 1023.3 967.7
12 15.09 ЮВ 3 н/о н/о +22.7 +13.4 56 +26 +26 жарко 1022.8 967.4
13 15.09 ЮВ 3 н/о н/о +23.4 +13.8 55 +27 +27 душно 1022.2 966.9
14 15.09 ЮВ 2 н/о н/о +23.4 +13.8 55 +27 +27 душно 1021.6 966.4
15 15.09 ЮВ 2 н/о н/о +23.3 +13.7 55 +27 +27 душно 1021.1 965.9
16 15.09 ЮВ 2 н/о н/о +22.7 +13.4 56 +26 +26 жарко 1020.7 965.4
17 15.09 СЗ 1 н/о н/о +19.6 +15.3 76 +23 +23 комфорт 1021.1 965.2
18 15.09 З 1 н/о н/о +17.1 +15.5 90 +18 +18 1021.6 965.2 +11.3 +23.6
19 15.09 СЗ 1 н/о н/о +15.8 +14.9 94 +16 +16 1021.7 965.1 0.0
20 15.09 СЗ 3 н/о н/о +16.6 +14.2 86 +16 +16 1021.2 964.7
21 15.09 штиль 0 н/о н/о +15.0 +14.0 94 +15 +15 1021.6 964.8 0.0
22 15.09 В 1 н/о н/о +13.2 +13.0 99 +13 +13 1021.9 964.7
23 15.09 В 1 н/о н/о +12.6 +12.3 98 +12 +12 1021.8 964.5
00 16.09 СВ 1 н/о н/о +12.6 +11.8 95 +13 +13 1021.8 964.5 0.0
01 16.09 С 1 н/о н/о +13.0 +11.4 90 +13 +13 1021.4 964.2
02 16.09 СЗ 2 н/о н/о +14.7 +11.8 83 +14 +14 1021.0 964.1
03 16.09 СЗ 1 н/о н/о +13.5 +11.7 89 +14 +14 1021.1 964.0
04 16.09 СЗ 1 н/о н/о +13.0 +12.2 95 +13 +13 1020.8 963.6
05 16.09 СЗ 2 н/о н/о +14.4 +12.8 90 +14 +14 1020.4 963.5
06 16.09 СЗ 1 н/о н/о +15.1 +13.4 90 +16 +16 1019.9 963.2 +12.1 +17.5 0.0
07 16.09 З 2 н/о н/о +18.8 +14.4 76 +20 +20 1019.0 963.1
08 16.09 ЮЗ 1 н/о н/о +24.0 +12.9 50 +26 +26 жарко 1017.8 962.9
09 16.09 СЗ 4 н/о н/о +24.1 +12.4 48 +26 +26 жарко 1017.6 962.7
10 16.09 З 2 н/о н/о +25.3 +12.8 46 +27 +27 жарко 1017.2 962.5
11 16.09 СЗ 2 н/о н/о +26.4 +12.8 43 +28 +28 жарко 1016.5 962.0
12 16.09 З 2 н/о н/о +26.7 +12.3 41 +28 +28 жарко 1015.6 961.2
13 16.09 ЮВ 3 н/о н/о +25.6 +13.7 48 +28 +28 жарко 1015.0 960.5
14 16.09 В 2 н/о н/о +24.8 +14.2 52 +27 +27 жарко 1015.0 960.4
15 16.09 ЮВ 2 н/о н/о +24.6 +15.8 58 +28 +28 душно 1015.0 960.4
16 16.09 штиль 0 н/о н/о +24.0 +16.6 63 +27 +27 жарко 1015.2 960.5
17 16.09 В 1 н/о н/о +21.4 +18.6 84 +26 +26 душно 1015.3 960.2
18 16.09 З 1 н/о н/о +19.7 +18.2 91 +23 +23 комфорт 1016.0 960.5 +14.7 +27.0
19 16.09 штиль 0 н/о н/о +18.6 +17.5 93 +20 +20 1016.2 960.5
20 16.09 штиль 0 н/о н/о +18.0 +17.4 96 +18 +18 1016.4 960.5
21 16.09 ЮЗ 1 н/о н/о +18.3 +17.2 93 +20 +20 1016.3 960.5 0.0
22 16.09 штиль 0 н/о осадки н/о +17.8 +17.5 98 +18 +18 1016.4 960.5 0.1
23 16.09 штиль 0 н/о ливневой дождь {осадки} н/о +17.1 +17.0 99 +17 +17 1016.5 960.5 3
00 17.09 штиль 0 н/о в посл. час осадки {ливн. осадки} н/о +16.5 +16.4 99 +16 +16 1016.5 960.3 4
01 17.09 штиль 0 н/о в посл. час осадки н/о +16.2 +16.1 99 +16 +16 1015.7 959.5 0.1
02 17.09 З 1 н/о н/о +15.7 +15.6 99 +16 +16 1015.9 959.6
03 17.09 З 1 н/о {осадки} н/о +15.5 +15.4 99 +16 +16 1015.8 959.5 0.1
04 17.09 штиль 0 н/о н/о +15.4 +15.3 99 +15 +15 1015.9 959.5
05 17.09 штиль 0 н/о н/о +15.3 +15.2 99 +15 +15 1016.0 959.6
06 17.09 З 1 н/о {осадки} н/о +15.1 +15.0 99 +16 +16 1016.0 959.6 +14.9 +20.0 4
07 17.09 штиль 0 н/о н/о +15.8 +15.4 97 +16 +16 1016.2 959.9
08 17.09 штиль 0 н/о н/о +16.2 +15.4 95 +16 +16 1016.1 959.9
09 17.09 В 1 н/о н/о +18.2 +15.5 84 +20 +20 1015.5 959.7
10 17.09 СЗ 4 н/о н/о +20.4 +8.7 47 +22 +22 комфорт 1015.0 959.5
11 17.09 СЗ 4 н/о н/о +21.3 +8.6 44 +22 +22 комфорт 1014.2 958.9
12 17.09 СЗ 4 н/о н/о +22.5 +8.3 40 +24 +24 комфорт 1013.6 958.5 0.0
13 17.09 СЗ 3 н/о н/о +22.0 +8.2 41 +23 +23 комфорт 1013.1 958.0
14 17.09 З 2 н/о н/о +22.5 +8.6 41 +24 +24 комфорт 1012.5 957.5
15 17.09 З 2 н/о н/о +22.4 +8.9 42 +24 +24 комфорт 1012.4 957.4
16 17.09 СЗ 4 н/о н/о +21.1 +8.4 44 +22 +22 комфорт 1012.7 957.4
17 17.09 В 2 н/о н/о +17.7 +11.9 69 +18 +18 1013.7 957.8
18 17.09 СЗ 2 н/о н/о +19.4 +10.4 56 +21 +21 комфорт 1013.6 958.0 +15.0 +22.9 0.0
19 17.09 СЗ 5 н/о н/о +19.3 +9.8 54 +20 +20 1014.3 958.6
20 17.09 З 3 н/о н/о +18.3 +8.8 54 +19 +19 1014.6 958.7
21 17.09 СЗ 7
{14}
н/о н/о +17.9 +7.4 50 +17 +17 1015.2 959.2
22 17.09 З 6
{16}
н/о н/о +17.4 +6.3 48 +17 +17 1016.0 959.8
23 17.09 СЗ 6
{13}
н/о н/о +16.1 +5.1 48 +15 +15 1016.8 960.3
00 18.09 З 4
{16}
н/о н/о +15.8 +5.2 49 +15 +15 1016.8 960.3
01 18.09 З 5
{17}
н/о н/о +15.6 +4.7 48 +15 +15 1017.1 960.5
02 18.09 З 4
{13}
н/о н/о +14.9 +4.5 50 +14 +14 1018.0 961.2
03 18.09 СЗ 5
{17}
н/о н/о +14.2 +4.2 51 +13 +13 1018.9 961.9
04 18.09 СЗ 4 н/о н/о +13.8 +4.1 52 +13 +13 1019.6 962.5
05 18.09 СЗ 6 н/о н/о +12.9 +3.5 53 +11 +11 1020.9 963.6
06 18.09 СЗ 6
{17}
н/о н/о +12.9 +3.3 52 +11 +11 1021.5 964.1 +12.6 +19.9
07 18.09 СЗ 5 н/о н/о +13.3 +3.6 52 +12 +12 1021.9 964.6
08 18.09 СЗ 7
{13}
н/о н/о +13.4 +3.2 50 +11 +11 1022.8 965.5
09 18.09 СЗ 5
{13}
н/о н/о +14.5 +3.3 47 +13 +13 1022.5 965.4
10 18.09 СЗ 5 н/о н/о +16.1 +3.2 42 +15 +15 1022.1 965.3
11 18.09 З 4 н/о н/о +16.9 +3.2 40 +16 +16 1021.8 965.2
12 18.09 СЗ 4
{13}
н/о н/о +17.5 +2.6 37 +17 +17 1021.3 964.8
13 18.09 СЗ 5 н/о н/о +17.9 +1.4 33 +18 +18 1020.8 964.4
14 18.09 СЗ 5 н/о н/о +18.1 +1.1 32 +18 +18 1020.5 964.2
15 18.09 СЗ 4 н/о н/о +18.1 +0.7 31 +18 +18 1020.5 964.2
16 18.09 В 2 н/о н/о +16.4 +2.7 40 +17 +17 1021.2 964.5
17 18.09 В 1 н/о н/о +14.4 +2.6 45 +15 +15 1022.2 965.1
18 18.09 СЗ 1
{13}
н/о н/о +11.2 +5.3 67 +11 +11 1023.7 965.9 +11.2 +18.5
19 18.09 штиль 0 н/о н/о +10.2 +6.2 76 +10 +10 1024.7 966.7
20 18.09 СЗ 1 н/о н/о +8.2 +5.9 85 +7 +7 1025.5 967.0
21 18.09 ЮЗ 1 н/о н/о +7.0 +5.2 88 +6 +6 1026.2 967.4
22 18.09 штиль 0 н/о н/о +6.1 +4.9 92 +5 +5 1026.4 967.4
23 18.09 штиль 0 н/о н/о +5.4 +4.3 93 +4 +4 1026.7 967.6
00 19.09 штиль 0 н/о н/о +4.6 +3.8 95 +3 +3 1027.0 967.7
01 19.09 СЗ 1 н/о н/о +4.0 +3.5 97 +2 +2 1027.1 967.6
02 19.09 СЗ 1 н/о н/о +3.4 +3.1 98 +2 +2 1027.0 967.4
03 19.09 штиль 0 н/о н/о +3.4 +2.8 96 +2 +2 1027.1 967.5
04 19.09 штиль 0 н/о н/о +2.9 +2.4 97 +2 +2 1027.4 967.7
05 19.09 штиль 0 н/о н/о +3.2 +2.6 96 +2 +2 1027.6 967.9
06 19.09 ЮВ 1 н/о н/о +5.0 +3.3 89 +4 +4 1027.7 968.4 +2.8 +11.4
07 19.09 С 1 н/о н/о +7.0 +2.7 74 +6 +6 1027.5 968.6
08 19.09 В 1 н/о н/о +11.5 +3.5 58 +12 +12 1026.7 968.8
09 19.09 СЗ 4 н/о н/о +13.3 +2.2 47 +12 +12 1026.3 968.7
10 19.09 З 3 н/о н/о +13.3 +1.3 44 +12 +12 1026.1 968.5
11 19.09 З 3 н/о н/о +14.8 +1.0 39 +14 +14 1025.4 968.2
12 19.09 СЗ 4 н/о н/о +15.4 +1.2 38 +15 +15 1025.2 968.1
13 19.09 З 5 н/о н/о +14.4 +1.0 40 +13 +13 1025.9 968.6
14 19.09 З 4 н/о н/о +14.5 +0.7 39 +14 +14 1025.4 968.1
15 19.09 З 3 н/о н/о +13.7 +1.7 44 +13 +13 1025.9 968.4
16 19.09 З 2 н/о н/о +13.2 +1.2 44 +13 +13 1025.7 968.1
17 19.09 штиль 0 н/о н/о +11.3 +1.8 52 +11 +11 1026.6 968.6
18 19.09 штиль 0 н/о н/о +9.6 +4.4 70 +9 +9 1027.9 969.5 +4.8 +15.5
19 19.09 СЗ 1 н/о н/о +8.0 +5.2 82 +7 +7 1028.8 970.1
20 19.09 штиль 0 н/о н/о +7.1 +5.3 88 +6 +6 1029.9 970.9
21 19.09 В 1 н/о н/о +6.6 +5.1 90 +5 +5 1030.2 971.1
22 19.09 штиль 0 н/о н/о +6.5 +5.2 91 +5 +5 1030.4 971.3
23 19.09 штиль 0 н/о н/о +6.0 +5.0 93 +5 +5 1030.6 971.4
00 20.09 Ю 1 н/о н/о +5.7 +5.0 95 +4 +4 1030.6 971.3
01 20.09 штиль 0 н/о н/о +4.4 +3.8 96 +3 +3 1031.0 971.4
02 20.09 штиль 0 н/о н/о +3.3 +3.0 98 +2 +2 1030.7 970.9
03 20.09 штиль 0 н/о н/о +2.8 +2.6 99 +2 +2 1030.8 970.9
04 20.09 З 1 н/о н/о +2.5 +2.3 99 +1 +1 1031.1 971.1
05 20.09 СЗ 1 н/о н/о +2.5 +2.5 100 +1 +1 1030.9 970.9
06 20.09 С 1 н/о н/о +4.2 +3.4 95 +3 +3 1030.7 971.1 +2.2 +9.8
07 20.09 штиль 0 н/о н/о +8.2 +3.2 71 +8 +8 1030.1 971.3
08 20.09 штиль 0 н/о н/о +12.1 +4.1 58 +12 +12 1029.4 971.4
09 20.09 ЮВ 2 н/о н/о +13.2 +1.8 46 +13 +13 1028.8 971.1
10 20.09 В 2 н/о н/о +13.5 +2.4 47 +13 +13 1028.8 971.1
11 20.09 ЮВ 2 н/о н/о +14.8 +2.3 43 +15 +15 1027.7 970.3
12 20.09 В 2 н/о н/о +15.0 +2.5 43 +15 +15 1027.1 969.8
14 20.09 ЮВ 3 н/о н/о +15.7 +2.5 41 +15 +15 1026.2 969.1
15 20.09 ЮВ 3 н/о н/о +15.1 +2.3 42 +15 +15 1026.3 969.1
16 20.09 ЮВ 3 н/о н/о +14.3 +2.2 44 +14 +14 1026.7 969.3
17 20.09 З 1 н/о н/о +11.4 +3.9 60 +11 +11 1027.6 969.6
18 20.09 штиль 0 н/о н/о +9.2 +5.2 76 +9 +9 1028.8 970.3 +3.7 +15.9
19 20.09 СЗ 1 н/о н/о +7.5 +5.2 85 +7 +7 1029.6 970.7
20 20.09 З 1 н/о н/о +6.1 +4.9 92 +5 +5 1030.1 970.9
21 20.09 СЗ 1 н/о н/о +5.4 +4.9 97 +4 +4 1030.2 970.9
22 20.09 штиль 0 н/о н/о +4.7 +4.2 97 +4 +4 1030.4 970.9
23 20.09 штиль 0 н/о н/о +4.2 +3.7 97 +3 +3 1030.0 970.4
00 21.09 штиль 0 н/о н/о +3.7 +3.7 100 +2 +2 1029.9 970.2
01 21.09 штиль 0 н/о н/о +3.4 +3.2 99 +2 +2 1029.9 970.1
02 21.09 СЗ 1 н/о н/о +3.1 +2.9 99 +1 +1 1029.6 969.8
03 21.09 штиль 0 н/о н/о +2.7 +2.5 99 +1 +1 1029.4 969.5
04 21.09 штиль 0 н/о н/о +2.5 +2.3 99 +1 +1 1029.0 969.1
05 21.09 штиль 0 н/о н/о +2.2 +2.0 99 +1 +1 1028.8 968.8
06 21.09 С 1 н/о н/о +3.8 +3.5 98 +2 +2 1028.2 968.6 +2.2 +9.6
07 21.09 штиль 0 н/о н/о +8.2 +4.2 76 +8 +8 1027.2 968.6
08 21.09 ЮВ 1 н/о н/о +14.0 +4.9 54 +15 +15 1025.8 968.4
09 21.09 З 2 н/о н/о +16.3 +3.7 43 +17 +17 1024.8 967.9
10 21.09 З 2 н/о н/о +17.8 +4.0 40 +18 +18 1024.1 967.5
11 21.09 ЮЗ 2 н/о н/о +19.0 +4.0 37 +20 +20 1023.1 966.8
12 21.09 ЮЗ 2 н/о н/о +20.0 +4.4 36 +21 +21 комфорт 1022.4 966.3
13 21.09 З 2 н/о н/о +21.1 +5.5 36 +22 +22 комфорт 1021.5 965.7
14 21.09 ЮЗ 1 н/о н/о +21.3 +5.3 35 +22 +22 комфорт 1020.8 965.1
15 21.09 Ю 1 н/о н/о +20.8 +5.2 36 +23 +23 комфорт 1020.5 964.7
16 21.09 Ю 1 н/о н/о +19.7 +5.4 39 +21 +21 комфорт 1020.4 964.4
17 21.09 ЮВ 1 н/о н/о +14.7 +8.4 66 +15 +15 1021.3 964.4
18 21.09 ЮВ 1 н/о н/о +11.9 +8.9 82 +12 +12 1021.9 964.4 +3.3 +21.5
19 21.09 штиль 0 н/о н/о +10.0 +8.4 90 +9 +9 1022.5 964.6
20 21.09 штиль 0 н/о н/о +8.6 +7.7 94 +8 +8 1022.6 964.4
21 21.09 штиль 0 н/о н/о +7.9 +7.2 95 +7 +7 1022.5 964.1
22 21.09 штиль 0 н/о н/о +7.5 +6.9 96 +6 +6 1022.1 963.7

 

Местоположение метеостанции Райхенау-ан-дер-Ракс (Австрия): широта 47.70 долгота 15.83 высота над уровнем моря 486 м.

В архиве по умолчанию представлена погода в Райхенау-ан-дер-Раксе за последнюю неделю. Архивные данные за месяц целиком и за предыдущие месяцы, начиная с января 2011 года, Вы можете получить, выбрав интересующий диапазон дат из раскрывающегося списка и нажав кнопку "Ввод!".


*Определитесь, кто Вы:
робот инопланетянин человек

Внимание! Время в таблицах - всемирное. Для получения местного времени необходимо прибавить поправку, которая равна 1 ч.

Смотрите также архив погоды в соседних городах и на ближайших метеорологических станциях:

Погода в Раксе (Австрия) (4 км)
Погода в Семмеринге (Австрия) (8 км)
Погода в Хиршенкогеле (Австрия) (9 км)
Погода в Пухберг-ам-Шнеберге (Австрия) (10 км)
Погода в Марияхильфберге (Австрия) (19 км)
Погода в Хоэ-Ванде (Австрия) (20 км)
Погода в Мёнихкирхене (Австрия) (25 км)
Погода в Фишбахе (Австрия) (32 км)
Погода в Винер-Нойштадт (Австрия) (33 км)
Погода в Крумбахе (Австрия) (33 км)

Пояснения к столбцам:

Ветер - указаны скорость ветра в м/с - средняя за 10 мин, порывы в срок и между сроками (в фигурных скобках) и направление, откуда дует ветер: С - северный, СВ - северо-восточный, В - восточный, ЮВ - юго-восточный, Ю - южный, ЮЗ - юго-западный, З - западный, СЗ - северо-западный.
Видимость - горизонтальная дальность видимости в метрах или километрах. При видимости от 1 до 10 км при отсутствии осадков обычно наблюдается дымка, при ухудшении видимости до 1 км и менее - туман. В сухую погоду видимость может ухудшаться дымом, пылью или мглою.
Явления - указаны атмосферные явления, наблюдавшиеся в срок или в последний час перед сроком; фигурными скобками обозначены явления, наблюдавшиеся между сроками (за 1-3 часа до срока); квадратными скобками обозначены град или гололедные отложения с указанием их диаметра в мм.
Облачность - указаны через наклонную черту общая и нижняя облачность в баллах и высота нижней границы облаков в метрах; квадратными скобками обозначены формы облаков: Ci - перистые, Cs - перисто-слоистые, Cc - перисто-кучевые, Ac - высококучевые, As - высокослоистые, Sc - слоисто-кучевые, Ns - слоисто-дождевые, Cu - кучевые, Cb - кучево-дождевые. Подробнее классификацию облаков см. в Атласе облаков (PDF).
T - Температура воздуха - температура, измеренная на высоте 2 м над землей.
Td - Температура точки росы - температура, при понижении до которой содержащийся в воздухе водяной пар достигнет насыщения.
f - Относительная влажность воздуха - влажноcть воздуха, измеренная на высоте 2 м над землей.
Te - Эффективная температура - температура, которую ощущает одетый по сезону человек в тени. Характеристика душности погоды. При расчете учитывается влияние влажности воздуха и скорости ветра на теплоощущения человека.
Tes - Эффективная температура на солнце - температура, которую ощущает человек, с поправкой на солнечный нагрев. Характеристика знойности погоды. Зависит от высоты солнца над горизонтом, облачности и скорости ветра. Ночью, в пасмурную погоду, а также при ветре 12 м/с и более поправка равна нулю.
P - Атмосферное давление - приведенное к уровню моря атмосферное давление.
Po - Атмосферное давление - измеренное на уровне метеостанции атмосферное давление.
Tmin - Минимальная температура - минимум температуры воздуха на высоте 2 м над землей.
Tmax - Максимальная температура - максимум температуры воздуха на высоте 2 м над землей.
R - Количество осадков - Количество выпавших осадков за период времени, мм. При наведении курсора мыши на число - период времени, за который выпало указанное количество осадков.
R24 - Количество осадков - Количество выпавших осадков за 24 часа, мм.
S - Снежный покров - Высота снежного покрова, см. При наведении курсора мыши на число - состояние снежного покрова и степень покрытия местности в баллах.